Date String (YYYY-MM-DD hh:mm:ss) UTC,Instrument flags,absolute air pressure of the measurement (hPa),sample flow rate (lpm),inlet stack bypass flow (lpm),air temperature of the measurement (°C),ambient temperature measured by the external sensor (°C),aerosol sample conditioner tube jacket temperature (°C),OPC LED temperature (°C),internal box temperature (°C),relative humidity of the measurement (%),span deviation,mass concentration of particles derived from Lorenz-Mie calculation of OPC scattering (μg/m³),mass concentration of particles derived from Lorenz-Mie calculation of OPC scattering (μg/m³),mass concentration of particles derived from Lorenz-Mie calculation of OPC scattering (μg/m³)
DateTimeUTC,F1_M11,P_M11,Q1_M11,Q2_M11,T1_M11,T2_M11,T3_M11,T4_M11,T5_M11,U1_M11,ZSPAN_M11,X0_M11,X2_M11,X1_M11
2023-08-07 05:00:00,SystemResetWarning,0835.1,5.00,000.00,029.8,028.7,000.0,038.4,031.4,32.8,-001.1,0010.22,0007.36,0007.00
2023-08-07 05:01:00,SystemResetWarning,0835.0,5.00,000.00,029.8,028.7,000.0,038.4,031.5,32.9,-001.1,0009.79,0007.21,0006.86
2023-08-07 05:02:00,SystemResetWarning,0835.0,5.00,000.00,029.9,028.7,000.0,038.4,031.5,32.9,-000.7,0009.67,0007.10,0006.75
2023-08-07 05:03:00,SystemResetWarning,0835.1,5.00,000.00,029.9,028.7,000.0,038.5,031.5,32.9,-001.0,0009.73,0007.01,0006.64
2023-08-07 05:04:00,SystemResetWarning,0835.1,5.00,000.00,029.9,028.7,000.0,038.5,031.5,32.9,-000.9,0010.11,0006.94,0006.57
2023-08-07 05:05:00,SystemResetWarning,0835.1,5.01,000.00,029.9,028.7,000.0,038.5,031.5,32.9,-000.2,0010.33,0006.93,0006.54
2023-08-07 05:06:00,SystemResetWarning,0835.2,5.00,000.00,029.9,028.7,000.0,038.5,031.5,32.9,-000.3,0010.44,0006.98,0006.55
2023-08-07 05:07:00,SystemResetWarning,0835.3,5.00,000.00,029.9,028.8,000.0,038.5,031.5,33.0,-001.0,0010.55,0007.04,0006.59
2023-08-07 05:08:00,SystemResetWarning,0835.3,5.00,000.00,029.9,028.8,000.0,038.5,031.5,33.0,-001.2,0010.77,0007.08,0006.63
2023-08-07 05:09:00,SystemResetWarning,0835.2,5.00,000.00,030.0,028.8,000.0,038.5,031.5,33.0,-001.0,0010.97,0007.17,0006.64
2023-08-07 05:10:00,SystemResetWarning,0835.2,5.00,000.00,030.0,028.8,000.0,038.6,031.6,32.9,-001.3,0011.00,0007.17,0006.61
2023-08-07 05:11:00,SystemResetWarning,0835.1,5.00,000.00,030.0,028.8,000.0,038.6,031.6,32.8,-001.4,0011.00,0007.13,0006.53
2023-08-07 05:12:00,SystemResetWarning,0835.0,5.00,000.00,030.0,028.8,000.0,038.6,031.6,32.7,-001.2,0011.21,0007.09,0006.46
2023-08-07 05:13:00,SystemResetWarning,0834.9,5.00,000.00,030.0,028.8,000.0,038.6,031.6,32.7,-001.4,0011.34,0007.02,0006.39
2023-08-07 05:14:00,SystemResetWarning,0834.9,5.00,000.00,030.0,028.8,000.0,038.6,031.6,32.7,-000.7,0011.32,0006.94,0006.31
2023-08-07 05:15:00,SystemResetWarning,0835.0,5.00,000.00,030.0,028.8,000.0,038.6,031.6,32.7,-000.3,0010.85,0006.86,0006.23
2023-08-07 05:16:00,SystemResetWarning,0835.1,4.99,000.00,030.0,028.6,000.0,038.6,031.6,32.6,-000.5,0010.69,0006.82,0006.16
2023-08-07 05:17:00,SystemResetWarning,0835.2,5.00,000.00,030.0,026.7,000.0,038.5,031.4,32.6,-000.4,0010.59,0006.76,0006.10
2023-08-07 05:18:00,SystemResetWarning,0835.3,5.00,000.00,029.9,025.5,000.0,038.4,031.2,32.6,-000.3,0010.60,0006.75,0006.06
2023-08-07 05:19:00,SystemResetWarning,0835.3,5.02,000.00,029.8,025.4,000.0,038.3,030.8,32.9,0000.1,0010.60,0006.79,0006.05
2023-08-07 05:20:00,SystemResetWarning,0835.2,5.01,000.00,029.7,025.7,000.0,038.4,030.7,33.1,-000.2,0010.56,0006.76,0006.07
2023-08-07 05:21:00,SystemResetWarning,0835.3,5.00,000.00,029.6,026.1,000.0,038.4,030.8,33.4,-000.2,0010.71,0006.86,0006.16
2023-08-07 05:22:00,SystemResetWarning,0835.3,5.00,000.00,029.6,026.5,000.0,038.3,030.9,33.4,-000.2,0011.15,0007.04,0006.32
2023-08-07 05:23:00,SystemResetWarning,0835.2,4.99,000.00,029.6,026.8,000.0,038.3,030.9,33.3,0000.0,0011.27,0007.19,0006.49
2023-08-07 05:24:00,SystemResetWarning,0835.2,5.00,000.00,029.5,027.1,000.0,038.3,031.0,33.3,0000.0,0011.39,0007.39,0006.65
2023-08-07 05:25:00,SystemResetWarning,0835.2,5.01,000.00,029.5,027.3,000.0,038.3,031.0,33.2,0000.1,0011.57,0007.57,0006.81
2023-08-07 05:26:00,SystemResetWarning,0835.2,5.00,000.00,029.5,027.5,000.0,038.3,031.0,33.2,-000.5,0011.80,0007.71,0006.96
2023-08-07 05:27:00,SystemResetWarning,0835.2,5.00,000.00,029.5,027.7,000.0,038.3,031.1,33.1,-000.5,0012.22,0007.85,0007.13
2023-08-07 05:28:00,SystemResetWarning,0835.2,5.00,000.00,029.5,027.8,000.0,038.3,031.1,33.0,-000.3,0012.36,0008.01,0007.30
2023-08-07 05:29:00,SystemResetWarning,0835.3,5.00,000.00,029.6,027.9,000.0,038.3,031.1,32.9,0000.0,0012.47,0008.12,0007.42
2023-08-07 05:30:00,SystemResetWarning,0835.2,5.00,000.00,029.6,028.0,000.0,038.3,031.1,32.8,-000.4,0012.49,0008.19,0007.51
2023-08-07 05:31:00,SystemResetWarning,0835.2,5.00,000.00,029.6,028.0,000.0,038.3,031.1,32.7,-000.3,0012.56,0008.30,0007.62
2023-08-07 05:32:00,SystemResetWarning,0835.2,5.00,000.00,029.6,028.1,000.0,038.3,031.1,32.6,0000.1,0013.02,0008.38,0007.70
2023-08-07 05:33:00,SystemResetWarning,0835.1,5.00,000.00,029.6,028.2,000.0,038.3,031.2,32.5,0000.0,0013.26,0008.40,0007.73
2023-08-07 05:34:00,SystemResetWarning,0835.1,5.00,000.00,029.6,028.2,000.0,038.3,031.2,32.4,-000.5,0013.14,0008.43,0007.76
2023-08-07 05:35:00,SystemResetWarning,0835.1,5.00,000.00,029.6,028.3,000.0,038.3,031.2,32.3,-000.8,0013.09,0008.44,0007.80
2023-08-07 05:36:00,SystemResetWarning,0835.0,5.00,000.00,029.7,028.3,000.0,038.3,031.2,32.3,-001.2,0013.07,0008.51,0007.85
2023-08-07 05:37:00,SystemResetWarning,0835.0,5.00,000.00,029.7,028.3,000.0,038.3,031.3,32.2,-000.9,0013.31,0008.59,0007.88
2023-08-07 05:38:00,SystemResetWarning,0834.9,5.00,000.00,029.7,028.4,000.0,038.3,031.3,32.1,-001.2,0013.05,0008.61,0007.91
2023-08-07 05:39:00,SystemResetWarning,0834.9,5.00,000.00,029.7,028.4,000.0,038.3,031.3,32.0,-001.7,0013.48,0008.61,0007.92
2023-08-07 05:40:00,SystemResetWarning,0835.0,5.00,000.00,029.7,028.4,000.0,038.3,031.3,31.9,-002.0,0013.81,0008.64,0007.97
2023-08-07 05:41:00,SystemResetWarning,0835.0,5.01,000.00,029.7,028.4,000.0,038.3,031.3,31.9,-001.9,0013.94,0008.72,0008.04
2023-08-07 05:42:00,SystemResetWarning,0835.0,5.00,000.00,029.7,028.5,000.0,038.4,031.3,31.8,-001.8,0014.13,0008.81,0008.09
2023-08-07 05:43:00,SystemResetWarning,0835.0,4.99,000.00,029.8,028.5,000.0,038.4,031.4,31.7,-002.0,0013.94,0008.80,0008.11
2023-08-07 05:44:00,SystemResetWarning,0835.0,4.99,000.00,029.8,028.5,000.0,038.4,031.4,31.7,-002.1,0013.58,0008.77,0008.09
2023-08-07 05:45:00,SystemResetWarning,0835.0,5.00,000.00,029.8,028.5,000.0,038.4,031.4,31.6,-002.2,0013.71,0008.73,0008.03
2023-08-07 05:46:00,SystemResetWarning,0834.9,5.00,000.00,029.8,028.5,000.0,038.4,031.4,31.5,-002.2,0013.81,0008.69,0007.97
2023-08-07 05:47:00,SystemResetWarning,0835.0,5.00,000.00,029.8,028.5,000.0,038.4,031.4,31.5,-002.2,0013.55,0008.57,0007.89
2023-08-07 05:48:00,SystemResetWarning,0834.8,5.00,000.00,029.8,028.5,000.0,038.4,031.4,31.4,-002.6,0013.28,0008.44,0007.81
2023-08-07 05:49:00,SystemResetWarning,0834.8,5.00,000.00,029.8,028.5,000.0,038.4,031.4,31.4,-002.6,0012.91,0008.37,0007.75
2023-08-07 05:50:00,SystemResetWarning,0834.5,5.00,000.00,029.8,028.5,000.0,038.4,031.4,31.3,-001.9,0012.58,0008.31,0007.67
2023-08-07 05:51:00,SystemResetWarning,0834.4,5.00,000.00,029.8,028.5,000.0,038.5,031.4,31.3,-001.8,0012.22,0008.27,0007.59
2023-08-07 05:52:00,SystemResetWarning,0834.3,5.00,000.00,029.8,028.5,000.0,038.5,031.4,31.3,-001.8,0011.93,0008.13,0007.50
2023-08-07 05:53:00,SystemResetWarning,0834.3,5.00,000.00,029.8,028.5,000.0,038.5,031.4,31.2,-001.7,0011.69,0008.01,0007.42
2023-08-07 05:54:00,SystemResetWarning,0834.3,5.00,000.00,029.8,028.5,000.0,038.5,031.4,31.2,-001.5,0011.46,0007.89,0007.33
2023-08-07 05:55:00,SystemResetWarning,0834.6,5.00,000.00,029.9,028.5,000.0,038.5,031.4,31.1,-001.6,0011.34,0007.86,0007.30
2023-08-07 05:56:00,SystemResetWarning,0834.3,5.01,000.00,029.9,028.5,000.0,038.5,031.4,31.1,-001.7,0010.97,0007.84,0007.30
2023-08-07 05:57:00,SystemResetWarning,0834.3,5.00,000.00,029.9,028.5,000.0,038.5,031.4,31.0,-001.5,0011.01,0007.84,0007.31
2023-08-07 05:58:00,SystemResetWarning,0834.4,5.01,000.00,029.9,028.5,000.0,038.5,031.4,31.0,-001.0,0011.06,0007.88,0007.32
2023-08-07 05:59:00,SystemResetWarning,0834.4,5.00,000.00,029.9,028.5,000.0,038.5,031.4,30.9,-000.8,0011.06,0007.91,0007.36
